Retour au catalogue

STARLINK-31922

ActifCommunicationsVLEO
NORAD 59846·PAYLOAD·🇺🇸 United States

Lancé May 23, 2024 depuis Cape Canaveral Space Force Station

Loading…

Prochains Passages (prochaines 24 heures)

TLE

FraisSource: CelesTrak SupGP

Époque: Sep 14, 2026, 22:37 UTC

1 59846C 24097M   26257.94284722  .00030911  00000+0  11198-2 0  2576
2 59846  43.0024 285.2510 0001741 268.3919 109.5323 15.27556777    17

Suivez STARLINK-31922 en temps réel avec AllMySat

Download on the App Store